• In Uzbekistan
  • List of Countries
  • For 7 days
  • Water Temperature
  • Satellite Maps
  • Weather Map
  • Weather Widgets
  • user-avatar
    Login

    Hourly Weather Newcastle

    Today, 17 October, Tuesday

    Time Temperature Precipitation Wind Pressure Humidity
    00:00 +11°C° 0 mm 7 mps 745 mmHg 64%
    01:00 +11°C° 0 mm 8 mps 745 mmHg 65%
    02:00 +11°C° 0 mm 8 mps 746 mmHg 66%
    03:00 +11°C° 0 mm 8 mps 746 mmHg 66%
    04:00 +10°C° 0 mm 7 mps 747 mmHg 68%
    05:00 +10°C° 0 mm 7 mps 747 mmHg 70%
    06:00 +9°C° 0 mm 5 mps 747 mmHg 75%
    07:00 +10°C° 0 mm 6 mps 748 mmHg 74%
    08:00 +10°C° 0 mm 7 mps 748 mmHg 72%
    09:00 +10°C° 0 mm 7 mps 748 mmHg 71%
    10:00 +11°C° 0 mm 7 mps 749 mmHg 68%
    11:00 +12°C° 0 mm 7 mps 749 mmHg 66%
    12:00 +14°C° 0 mm 6 mps 749 mmHg 64%
    13:00 +13°C° 0 mm 6 mps 749 mmHg 64%
    14:00 +13°C° 0 mm 5 mps 749 mmHg 64%
    15:00 +13°C° 0 mm 5 mps 749 mmHg 65%
    16:00 +12°C° 0 mm 4 mps 749 mmHg 68%
    17:00 +11°C° 0 mm 3 mps 749 mmHg 72%
    18:00 +10°C° 0 mm 2 mps 748 mmHg 75%
    19:00 +10°C° 0 mm 2 mps 749 mmHg 76%
    20:00 +11°C° 0 mm 1 mps 749 mmHg 76%
    21:00 +10°C° 0 mm 1 mps 749 mmHg 77%
    22:00 +10°C° 0 mm 1 mps 748 mmHg 78%
    23:00 +10°C° 0 mm 1 mps 748 mmHg 79%

    Tomorrow, 18 October, Wednesday

    Time Temperature Precipitation Wind Pressure Humidity
    00:00 +8°C° 0 mm 0 mps 748 mmHg 80%
    01:00 +9°C° 0 mm 1 mps 748 mmHg 81%
    02:00 +9°C° 0 mm 1 mps 747 mmHg 82%
    03:00 +9°C° 0 mm 1 mps 747 mmHg 83%
    04:00 +9°C° 0 mm 1 mps 747 mmHg 84%
    05:00 +8°C° 0 mm 1 mps 746 mmHg 85%
    06:00 +8°C° 0 mm 1 mps 746 mmHg 86%
    07:00 +8°C° 0.1 mm 2 mps 746 mmHg 85%
    08:00 +9°C° 0.1 mm 2 mps 746 mmHg 84%
    09:00 +9°C° 0.1 mm 3 mps 746 mmHg 83%
    10:00 +10°C° 0 mm 3 mps 745 mmHg 82%
    11:00 +11°C° 0 mm 3 mps 745 mmHg 81%
    12:00 +12°C° 0 mm 4 mps 745 mmHg 80%
    13:00 +12°C° 0 mm 3 mps 744 mmHg 82%
    14:00 +12°C° 0 mm 3 mps 744 mmHg 84%
    15:00 +11°C° 0 mm 3 mps 744 mmHg 86%
    16:00 +11°C° 0.1 mm 3 mps 744 mmHg 88%
    17:00 +11°C° 0.1 mm 3 mps 743 mmHg 90%
    18:00 +11°C° 0.1 mm 3 mps 743 mmHg 92%
    19:00 +11°C° 0 mm 3 mps 743 mmHg 93%
    20:00 +12°C° 0 mm 2 mps 743 mmHg 94%
    21:00 +12°C° 0 mm 2 mps 743 mmHg 95%
    22:00 +12°C° 0 mm 2 mps 743 mmHg 96%
    23:00 +12°C° 0 mm 2 mps 743 mmHg 96%

    Day after tomorrow, 19 October, Thursday

    Time Temperature Precipitation Wind Pressure Humidity
    00:00 +12°C° 0 mm 2 mps 742 mmHg 97%
    01:00 +12°C° 0 mm 2 mps 742 mmHg 97%
    02:00 +10°C° 0 mm 2 mps 742 mmHg 97%
    03:00 +10°C° 0 mm 2 mps 742 mmHg 97%
    04:00 +10°C° 0 mm 2 mps 741 mmHg 97%
    05:00 +10°C° 0 mm 2 mps 741 mmHg 97%
    06:00 +10°C° 0 mm 2 mps 741 mmHg 96%
    07:00 +12°C° 0.1 mm 2 mps 741 mmHg 95%
    08:00 +12°C° 0.1 mm 2 mps 740 mmHg 94%
    09:00 +12°C° 0.1 mm 3 mps 740 mmHg 93%
    10:00 +12°C° 1.3 mm 3 mps 740 mmHg 93%
    11:00 +12°C° 1.3 mm 3 mps 739 mmHg 93%
    12:00 +12°C° 1.3 mm 3 mps 739 mmHg 94%
    13:00 +13°C° 1.5 mm 3 mps 738 mmHg 94%
    14:00 +13°C° 1.5 mm 3 mps 738 mmHg 93%
    15:00 +13°C° 1.5 mm 3 mps 737 mmHg 93%
    16:00 +13°C° 0.6 mm 3 mps 737 mmHg 94%
    17:00 +13°C° 0.6 mm 3 mps 737 mmHg 95%
    18:00 +13°C° 0.6 mm 3 mps 736 mmHg 95%
    19:00 +12°C° 0.2 mm 4 mps 736 mmHg 95%
    20:00 +12°C° 0.2 mm 4 mps 736 mmHg 94%
    21:00 +12°C° 0.2 mm 4 mps 736 mmHg 93%
    22:00 +12°C° 1.1 mm 5 mps 736 mmHg 93%
    23:00 +12°C° 1.1 mm 5 mps 735 mmHg 93%

    20 October, Friday

    Time Temperature Precipitation Wind Pressure Humidity
    00:00 +11°C° 1.1 mm 6 mps 735 mmHg 92%
    01:00 +12°C° 0.4 mm 5 mps 734 mmHg 93%
    02:00 +12°C° 0.4 mm 5 mps 734 mmHg 93%
    03:00 +12°C° 0.4 mm 4 mps 734 mmHg 94%
    04:00 +12°C° 0.1 mm 4 mps 734 mmHg 94%
    05:00 +12°C° 0.1 mm 4 mps 734 mmHg 94%
    06:00 +12°C° 0.1 mm 3 mps 735 mmHg 95%
    07:00 +12°C° 0 mm 4 mps 735 mmHg 92%
    08:00 +12°C° 0 mm 4 mps 736 mmHg 89%
    09:00 +12°C° 0 mm 4 mps 737 mmHg 86%
    10:00 +13°C° 0 mm 4 mps 737 mmHg 83%
    11:00 +13°C° 0 mm 4 mps 738 mmHg 80%
    12:00 +13°C° 0 mm 5 mps 738 mmHg 77%
    13:00 +13°C° 0 mm 5 mps 739 mmHg 76%
    14:00 +13°C° 0 mm 5 mps 739 mmHg 76%
    15:00 +13°C° 0 mm 5 mps 739 mmHg 75%
    16:00 +12°C° 0 mm 4 mps 739 mmHg 77%
    17:00 +11°C° 0 mm 4 mps 739 mmHg 79%
    18:00 +10°C° 0 mm 3 mps 739 mmHg 81%
    19:00 +10°C° 0.1 mm 4 mps 739 mmHg 82%
    20:00 +9°C° 0.1 mm 5 mps 738 mmHg 83%
    21:00 +9°C° 0.1 mm 5 mps 737 mmHg 84%
    22:00 +10°C° 1.1 mm 6 mps 737 mmHg 86%
    23:00 +10°C° 1.1 mm 7 mps 736 mmHg 88%

    21 October, Saturday

    Time Temperature Precipitation Wind Pressure Humidity
    00:00 +11°C° 1.1 mm 7 mps 735 mmHg 90%
    01:00 +11°C° 0.3 mm 7 mps 734 mmHg 89%
    02:00 +11°C° 0.3 mm 7 mps 734 mmHg 88%
    03:00 +11°C° 0.3 mm 7 mps 733 mmHg 87%
    04:00 +10°C° 0 mm 7 mps 733 mmHg 86%
    05:00 +10°C° 0 mm 7 mps 732 mmHg 84%
    06:00 +9°C° 0 mm 8 mps 732 mmHg 83%
    07:00 +10°C° 0 mm 9 mps 731 mmHg 80%
    08:00 +9°C° 0 mm 10 mps 730 mmHg 78%
    09:00 +11°C° 0 mm 11 mps 729 mmHg 75%
    10:00 +11°C° 0.1 mm 11 mps 728 mmHg 75%
    11:00 +11°C° 0.1 mm 11 mps 726 mmHg 75%
    12:00 +10°C° 0.1 mm 12 mps 725 mmHg 76%
    13:00 +10°C° 0.2 mm 12 mps 725 mmHg 76%
    14:00 +10°C° 0.2 mm 12 mps 725 mmHg 76%
    15:00 +10°C° 0.2 mm 12 mps 725 mmHg 76%
    16:00 +10°C° 1.1 mm 12 mps 726 mmHg 78%
    17:00 +9°C° 1.1 mm 12 mps 727 mmHg 80%
    18:00 +8°C° 1.1 mm 12 mps 728 mmHg 82%
    19:00 +8°C° 2.9 mm 12 mps 729 mmHg 83%
    20:00 +8°C° 2.9 mm 11 mps 731 mmHg 84%
    21:00 +8°C° 2.9 mm 11 mps 732 mmHg 85%
    22:00 +8°C° 0.6 mm 10 mps 733 mmHg 84%
    23:00 +8°C° 0.6 mm 10 mps 735 mmHg 83%

    22 October, Sunday

    Time Temperature Precipitation Wind Pressure Humidity
    00:00 +7°C° 0.6 mm 9 mps 736 mmHg 83%
    01:00 +7°C° 0.2 mm 9 mps 737 mmHg 82%
    02:00 +7°C° 0.2 mm 9 mps 739 mmHg 81%
    03:00 +6°C° 0.2 mm 8 mps 740 mmHg 80%
    04:00 +6°C° 0.1 mm 8 mps 741 mmHg 79%
    05:00 +6°C° 0.1 mm 8 mps 742 mmHg 79%
    06:00 +5°C° 0.1 mm 7 mps 742 mmHg 78%
    07:00 +6°C° 0 mm 7 mps 743 mmHg 76%
    08:00 +6°C° 0 mm 7 mps 744 mmHg 74%
    09:00 +6°C° 0 mm 7 mps 745 mmHg 72%
    10:00 +8°C° 0.1 mm 7 mps 745 mmHg 69%
    11:00 +8°C° 0.1 mm 7 mps 746 mmHg 67%
    12:00 +9°C° 0.1 mm 7 mps 746 mmHg 65%
    13:00 +9°C° 0.1 mm 7 mps 746 mmHg 67%
    14:00 +9°C° 0.1 mm 7 mps 746 mmHg 68%
    15:00 +9°C° 0.1 mm 6 mps 747 mmHg 70%
    16:00 +9°C° 0 mm 6 mps 747 mmHg 73%
    17:00 +9°C° 0 mm 5 mps 747 mmHg 76%
    18:00 +8°C° 0 mm 4 mps 747 mmHg 79%
    19:00 +9°C° 0 mm 5 mps 747 mmHg 80%
    20:00 +9°C° 0 mm 6 mps 747 mmHg 82%
    21:00 +10°C° 0 mm 6 mps 746 mmHg 83%
    22:00 +10°C° 1.4 mm 7 mps 746 mmHg 86%
    23:00 +11°C° 1.4 mm 7 mps 745 mmHg 88%
    Show more